| time (UTC) | temp C | wind direction | speed KPH | gust KPH | rain 1hr cm | rain 24hr cm | rain mn cm | humidity % | barometer mb |
| 20260503192345 | 15 | 206 | 6.4 | 12.9 | 0.00 | 0.00 | 0.25 | 72 | 1015.2 |
| 20260503191846 | 15 | 261 | 4.8 | 12.9 | 0.00 | 0.00 | 0.25 | 72 | 1014.9 |
| 20260503191345 | 15 | 225 | 4.8 | 11.3 | 0.00 | 0.00 | 0.25 | 74 | 1014.9 |
| 20260503190845 | 15 | 254 | 1.6 | 11.3 | 0.00 | 0.00 | 0.25 | 72 | 1014.9 |
| 20260503190346 | 15 | 215 | 6.4 | 11.3 | 0.00 | 0.00 | 0.25 | 72 | 1014.9 |
| 20260503185845 | 15 | 241 | 6.4 | 8.0 | 0.00 | 0.00 | 0.25 | 72 | 1014.9 |
| 20260503185345 | 15 | 256 | 3.2 | 11.3 | 0.00 | 0.00 | 0.25 | 71 | 1014.9 |
| 20260503184845 | 15 | 226 | 1.6 | 11.3 | 0.00 | 0.00 | 0.25 | 71 | 1014.6 |
| 20260503184346 | 15 | 250 | 1.6 | 4.8 | 0.00 | 0.00 | 0.25 | 70 | 1014.9 |
| 20260503183846 | 15 | 218 | 6.4 | 9.7 | 0.00 | 0.00 | 0.25 | 72 | 1014.9 |
| 20260503183346 | 15 | 196 | 4.8 | 9.7 | 0.00 | 0.00 | 0.25 | 75 | 1014.6 |
| 20260503182845 | 15 | 260 | 4.8 | 12.9 | 0.00 | 0.00 | 0.25 | 74 | 1014.9 |
| 20260503182345 | 15 | 248 | 8.0 | 11.3 | 0.00 | 0.00 | 0.25 | 73 | 1014.9 |
| 20260503181853 | 15 | 267 | 8.0 | 9.7 | 0.00 | 0.00 | 0.25 | 70 | 1014.9 |
| 20260503181346 | 15 | 273 | 6.4 | 11.3 | 0.00 | 0.00 | 0.25 | 69 | 1014.6 |
| 20260503180845 | 15 | 271 | 1.6 | 4.8 | 0.00 | 0.00 | 0.25 | 70 | 1014.6 |
| 20260503180345 | 15 | 256 | 1.6 | 11.3 | 0.00 | 0.00 | 0.25 | 69 | 1014.9 |
| 20260503175845 | 15 | 255 | 3.2 | 12.9 | 0.00 | 0.00 | 0.25 | 68 | 1014.9 |
| 20260503175346 | 15 | 261 | 3.2 | 9.7 | 0.00 | 0.00 | 0.25 | 68 | 1014.6 |
| 20260503174846 | 15 | 221 | 4.8 | 11.3 | 0.00 | 0.00 | 0.25 | 69 | 1014.9 |
| 20260503174345 | 15 | 284 | 4.8 | 9.7 | 0.00 | 0.00 | 0.25 | 72 | 1014.9 |
| 20260503173845 | 15 | 249 | 8.0 | 14.5 | 0.00 | 0.00 | 0.25 | 73 | 1014.9 |
| 20260503173346 | 15 | 237 | 4.8 | 4.8 | 0.00 | 0.00 | 0.25 | 72 | 1014.9 |
| 20260503172845 | 15 | 268 | 4.8 | 16.1 | 0.00 | 0.00 | 0.25 | 72 | 1014.9 |
| 20260503172346 | 15 | 226 | 3.2 | 9.7 | 0.00 | 0.00 | 0.25 | 74 | 1014.9 |
| 20260503171847 | 15 | 226 | 4.8 | 8.0 | 0.00 | 0.00 | 0.25 | 74 | 1014.9 |
| 20260503171345 | 15 | 179 | 8.0 | 11.3 | 0.00 | 0.00 | 0.25 | 73 | 1014.6 |
| 20260503170846 | 15 | 229 | 9.7 | 14.5 | 0.00 | 0.00 | 0.25 | 72 | 1014.9 |
| 20260503170345 | 15 | 210 | 8.0 | 14.5 | 0.00 | 0.00 | 0.25 | 71 | 1014.9 |
| 20260503150846 | 15 | 260 | 8.0 | 11.3 | 0.00 | 0.00 | 0.25 | 69 | 1014.9 |
| 20260503150346 | 15 | 237 | 8.0 | 9.7 | 0.00 | 0.00 | 0.25 | 68 | 1014.9 |
| 20260503131346 | 15 | 276 | 8.0 | 12.9 | 0.05 | 0.00 | 0.25 | 69 | 1015.2 |
| 20260503130846 | 14 | 221 | 6.4 | 16.1 | 0.05 | 0.00 | 0.25 | 73 | 1015.2 |
| 20260503130345 | 15 | 285 | 6.4 | 8.0 | 0.05 | 0.00 | 0.25 | 77 | 1015.2 |
| 20260503110345 | 14 | 265 | 4.8 | 9.7 | 0.00 | 0.00 | 0.20 | 76 | 1014.9 |
| 20260503090346 | 15 | 279 | 6.4 | 14.5 | 0.00 | 0.00 | 0.20 | 77 | 1013.9 |
| 20260503081345 | 15 | 329 | 8.0 | 16.1 | 0.00 | 0.00 | 0.18 | 73 | 1013.2 |
| 20260503080846 | 15 | 316 | 4.8 | 14.5 | 0.00 | 0.00 | 0.18 | 71 | 1013.2 |
| 20260503080345 | 15 | 227 | 8.0 | 16.1 | 0.00 | 0.00 | 0.18 | 71 | 1013.2 |
| 20260503072845 | 16 | 294 | 6.4 | 12.9 | 0.00 | 0.00 | 0.18 | 67 | 1013.2 |
| 20260503072345 | 17 | 285 | 8.0 | 14.5 | 0.00 | 0.00 | 0.18 | 64 | 1012.9 |
| 20260503071846 | 17 | 350 | 9.7 | 12.9 | 0.00 | 0.00 | 0.18 | 63 | 1013.2 |
| 20260503071345 | 17 | 258 | 11.3 | 17.7 | 0.00 | 0.00 | 0.18 | 61 | 1013.2 |
| 20260503070845 | 17 | 269 | 8.0 | 14.5 | 0.00 | 0.00 | 0.18 | 61 | 1012.9 |
| 20260503070346 | 17 | 310 | 8.0 | 17.7 | 0.00 | 0.00 | 0.18 | 63 | 1012.9 |
| 20260503054845 | 18 | 272 | 8.0 | 16.1 | 0.00 | 0.00 | 0.18 | 62 | 1012.5 |
| 20260503054345 | 18 | 279 | 11.3 | 20.9 | 0.00 | 0.00 | 0.18 | 61 | 1012.5 |
| 20260503053846 | 18 | 259 | 9.7 | 14.5 | 0.00 | 0.00 | 0.18 | 65 | 1012.5 |
| 20260503053345 | 18 | 269 | 14.5 | 22.5 | 0.00 | 0.00 | 0.18 | 64 | 1012.5 |
| 20260503052400 | 18 | 275 | 9.7 | 14.5 | 0.00 | 0.00 | 0.18 | 62 | 1012.5 |
| 20260503051845 | 18 | 241 | 14.5 | 20.9 | 0.00 | 0.00 | 0.18 | 65 | 1012.5 |
| 20260503051345 | 18 | 255 | 11.3 | 24.1 | 0.00 | 0.00 | 0.18 | 55 | 1012.5 |
| 20260503050845 | 18 | 314 | 11.3 | 22.5 | 0.00 | 0.00 | 0.18 | 59 | 1012.5 |
| 20260503050345 | 17 | 304 | 14.5 | 24.1 | 0.00 | 0.00 | 0.18 | 61 | 1012.2 |
| 20260503045846 | 17 | 329 | 8.0 | 27.4 | 0.00 | 0.00 | 0.18 | 62 | 1012.5 |
| 20260503045346 | 18 | 288 | 11.3 | 25.7 | 0.00 | 0.00 | 0.18 | 60 | 1012.5 |
| 20260503044846 | 18 | 272 | 11.3 | 25.7 | 0.00 | 0.00 | 0.18 | 59 | 1012.5 |
| 20260503044345 | 18 | 249 | 16.1 | 24.1 | 0.00 | 0.00 | 0.18 | 58 | 1012.5 |
| 20260503043845 | 18 | 261 | 12.9 | 25.7 | 0.00 | 0.00 | 0.18 | 61 | 1012.5 |
| 20260503043346 | 18 | 225 | 12.9 | 29.0 | 0.00 | 0.00 | 0.18 | 58 | 1012.5 |
| 20260503042845 | 18 | 301 | 14.5 | 25.7 | 0.00 | 0.00 | 0.18 | 61 | 1012.5 |
| 20260503042345 | 18 | 291 | 16.1 | 22.5 | 0.03 | 0.00 | 0.18 | 60 | 1012.2 |
| 20260503041846 | 18 | 296 | 14.5 | 17.7 | 0.05 | 0.00 | 0.18 | 60 | 1012.2 |
| 20260503041345 | 18 | 255 | 17.7 | 24.1 | 0.05 | 0.00 | 0.18 | 62 | 1012.9 |
| 20260503040845 | 18 | 301 | 11.3 | 25.7 | 0.05 | 0.00 | 0.18 | 65 | 1012.5 |
| 20260503040346 | 18 | 271 | 8.0 | 22.5 | 0.05 | 0.00 | 0.18 | 69 | 1012.5 |
| 20260503035845 | 17 | 323 | 11.3 | 20.9 | 0.05 | 0.00 | 0.18 | 69 | 1012.5 |
| 20260503035345 | 17 | 290 | 14.5 | 27.4 | 0.05 | 0.00 | 0.18 | 69 | 1012.5 |
| 20260503034845 | 17 | 248 | 6.4 | 14.5 | 0.05 | 0.00 | 0.18 | 74 | 1012.5 |
| 20260503034345 | 16 | 296 | 8.0 | 14.5 | 0.05 | 0.00 | 0.18 | 76 | 1012.5 |
| 20260503033845 | 15 | 308 | 8.0 | 17.7 | 0.05 | 0.00 | 0.18 | 79 | 1012.9 |
| 20260503033346 | 15 | 241 | 11.3 | 16.1 | 0.05 | 0.00 | 0.18 | 80 | 1012.9 |
| 20260503032845 | 15 | 323 | 6.4 | 20.9 | 0.05 | 0.00 | 0.18 | 81 | 1013.2 |
| 20260503032347 | 15 | 280 | 6.4 | 11.3 | 0.03 | 0.00 | 0.18 | 83 | 1013.2 |
| 20260503031845 | 17 | 322 | 17.7 | 27.4 | 0.00 | 0.00 | 0.13 | 68 | 1013.2 |
| 20260503031346 | 18 | 295 | 6.4 | 20.9 | 0.00 | 0.00 | 0.13 | 67 | 1012.9 |
| 20260503030845 | 18 | 275 | 9.7 | 14.5 | 0.00 | 0.00 | 0.13 | 70 | 1013.2 |
| 20260503030346 | 17 | 265 | 11.3 | 16.1 | 0.00 | 0.00 | 0.13 | 72 | 1013.2 |
| 20260503025846 | 16 | 270 | 9.7 | 14.5 | 0.00 | 0.00 | 0.13 | 75 | 1013.2 |
| 20260503025345 | 16 | 261 | 8.0 | 16.1 | 0.00 | 0.00 | 0.13 | 77 | 1013.2 |
| 20260503024845 | 16 | 295 | 8.0 | 11.3 | 0.00 | 0.00 | 0.13 | 80 | 1013.5 |
| 20260503024345 | 16 | 236 | 9.7 | 20.9 | 0.00 | 0.00 | 0.13 | 75 | 1013.5 |
| 20260503023846 | 16 | 259 | 14.5 | 24.1 | 0.00 | 0.00 | 0.13 | 73 | 1013.5 |
| 20260503023345 | 17 | 338 | 14.5 | 20.9 | 0.00 | 0.00 | 0.13 | 73 | 1013.2 |
| 20260503022846 | 18 | 276 | 14.5 | 20.9 | 0.00 | 0.00 | 0.13 | 61 | 1013.2 |
| 20260503022346 | 18 | 325 | 11.3 | 20.9 | 0.03 | 0.00 | 0.13 | 61 | 1013.2 |
| 20260503021845 | 20 | 316 | 9.7 | 22.5 | 0.03 | 0.00 | 0.13 | 59 | 1013.2 |
| 20260503021348 | 18 | 301 | 12.9 | 22.5 | 0.03 | 0.00 | 0.13 | 59 | 1013.2 |
| 20260503020848 | 18 | 304 | 14.5 | 22.5 | 0.03 | 0.00 | 0.13 | 59 | 1013.2 |
| 20260503020346 | 18 | 253 | 16.1 | 22.5 | 0.03 | 0.00 | 0.13 | 59 | 1013.2 |
| 20260503015845 | 18 | 304 | 8.0 | 16.1 | 0.03 | 0.00 | 0.13 | 63 | 1013.2 |
| 20260503015345 | 18 | 287 | 14.5 | 22.5 | 0.03 | 0.00 | 0.13 | 60 | 1013.2 |
| 20260503014845 | 18 | 260 | 11.3 | 17.7 | 0.03 | 0.00 | 0.13 | 64 | 1013.2 |
| 20260503014345 | 17 | 299 | 12.9 | 20.9 | 0.03 | 0.00 | 0.13 | 66 | 1013.5 |
| 20260503013845 | 18 | 310 | 11.3 | 25.7 | 0.03 | 0.00 | 0.13 | 66 | 1013.2 |
| 20260503013346 | 18 | 295 | 14.5 | 20.9 | 0.03 | 0.00 | 0.13 | 66 | 1013.2 |
| 20260503012851 | 18 | 324 | 17.7 | 22.5 | 0.00 | 0.00 | 0.13 | 65 | 1013.2 |
| 20260503012346 | 18 | 311 | 19.3 | 24.1 | 0.00 | 0.00 | 0.13 | 66 | 1013.2 |
| 20260503011845 | 18 | 334 | 14.5 | 24.1 | 0.00 | 0.00 | 0.10 | 66 | 1013.2 |
| 20260503011345 | 18 | 346 | 3.2 | 16.1 | 0.00 | 0.00 | 0.10 | 68 | 1013.2 |
| 20260503010400 | 17 | 325 | 6.4 | 22.5 | 0.00 | 0.00 | 0.10 | 67 | 1013.2 |
| 20260503005846 | 17 | 280 | 6.4 | 24.1 | 0.00 | 0.00 | 0.10 | 68 | 1013.2 |
| 20260503005346 | 17 | 324 | 12.9 | 17.7 | 0.00 | 0.00 | 0.10 | 70 | 1013.5 |
| 20260503004845 | 17 | 244 | 12.9 | 22.5 | 0.00 | 0.00 | 0.10 | 71 | 1013.2 |
| 20260503004345 | 17 | 309 | 8.0 | 16.1 | 0.05 | 0.00 | 0.10 | 70 | 1013.2 |
| 20260503003846 | 16 | 299 | 9.7 | 14.5 | 0.10 | 0.00 | 0.10 | 70 | 1013.2 |
| 20260503003345 | 16 | 318 | 9.7 | 20.9 | 0.10 | 0.00 | 0.10 | 69 | 1013.2 |
| 20260503002845 | 17 | 283 | 9.7 | 24.1 | 0.10 | 0.00 | 0.10 | 69 | 1013.2 |
| 20260503002347 | 16 | 296 | 12.9 | 17.7 | 0.10 | 0.00 | 0.10 | 69 | 1013.2 |
| 20260503001845 | 16 | 315 | 6.4 | 12.9 | 0.10 | 0.00 | 0.10 | 75 | 1013.2 |
| 20260503001346 | 15 | 300 | 6.4 | 9.7 | 0.10 | 0.00 | 0.10 | 78 | 1013.2 |
| 20260503000845 | 15 | 254 | 11.3 | 22.5 | 0.10 | 0.00 | 0.10 | 79 | 1013.2 |
| 20260503000345 | 14 | 304 | 8.0 | 12.9 | 0.10 | 0.00 | 0.10 | 80 | 1013.2 |
| 20260502235846 | 14 | 272 | 12.9 | 16.1 | 0.10 | 0.00 | 0.10 | 80 | 1013.2 |
| 20260502235346 | 15 | 325 | 14.5 | 24.1 | 0.10 | 0.00 | 0.10 | 78 | 1013.2 |
| 20260502234847 | 15 | 302 | 12.9 | 14.5 | 0.10 | 0.00 | 0.10 | 78 | 1012.9 |
| 20260502234346 | 15 | 331 | 6.4 | 14.5 | 0.05 | 0.00 | 0.10 | 78 | 1012.9 |
| 20260502233845 | 16 | 324 | 12.9 | 22.5 | 0.00 | 0.00 | 0.08 | 71 | 1012.9 |
| 20260502233345 | 17 | 289 | 9.7 | 22.5 | 0.00 | 0.00 | 0.00 | 64 | 1012.9 |
| 20260502232845 | 17 | 270 | 11.3 | 17.7 | 0.00 | 0.00 | 1.09 | 64 | 1012.9 |
| 20260502232346 | 16 | 282 | 11.3 | 22.5 | 0.00 | 0.00 | 1.09 | 65 | 1012.9 |
| 20260502231846 | 16 | 275 | 4.8 | 12.9 | 0.00 | 0.00 | 1.09 | 66 | 1012.9 |
| 20260502231345 | 16 | 300 | 9.7 | 14.5 | 0.00 | 0.00 | 1.09 | 65 | 1012.9 |
| 20260502230845 | 16 | 308 | 8.0 | 16.1 | 0.00 | 0.00 | 1.09 | 66 | 1012.9 |
| 20260502230345 | 16 | 325 | 8.0 | 20.9 | 0.00 | 0.00 | 1.09 | 67 | 1012.9 |
| 20260502225845 | 15 | 311 | 8.0 | 12.9 | 0.00 | 0.00 | 1.09 | 68 | 1012.5 |
| 20260502225346 | 15 | 297 | 4.8 | 11.3 | 0.00 | 0.00 | 1.09 | 67 | 1012.9 |
| 20260502224845 | 15 | 287 | 4.8 | 14.5 | 0.00 | 0.00 | 1.09 | 66 | 1012.5 |
| 20260502224346 | 16 | 325 | 8.0 | 16.1 | 0.00 | 0.00 | 1.09 | 68 | 1012.5 |
| 20260502223845 | 16 | 281 | 14.5 | 17.7 | 0.00 | 0.00 | 1.09 | 65 | 1012.5 |
| 20260502223345 | 16 | 275 | 3.2 | 16.1 | 0.00 | 0.00 | 1.09 | 68 | 1012.5 |
| 20260502222845 | 15 | 329 | 9.7 | 14.5 | 0.00 | 0.00 | 1.09 | 69 | 1012.5 |
| 20260502222345 | 15 | 287 | 6.4 | 9.7 | 0.00 | 0.00 | 1.09 | 70 | 1012.5 |
| 20260502221845 | 15 | 332 | 4.8 | 12.9 | 0.00 | 0.00 | 1.09 | 69 | 1012.2 |
| 20260502221346 | 15 | 260 | 6.4 | 11.3 | 0.00 | 0.00 | 1.09 | 70 | 1012.2 |
| 20260502220845 | 14 | 311 | 4.8 | 11.3 | 0.00 | 0.00 | 1.09 | 73 | 1012.2 |
| 20260502220345 | 13 | 313 | 6.4 | 12.9 | 0.00 | 0.00 | 1.09 | 74 | 1012.2 |
| 20260502215846 | 13 | 279 | 6.4 | 9.7 | 0.00 | 0.00 | 1.09 | 78 | 1011.9 |
| 20260502215345 | 13 | 312 | 4.8 | 8.0 | 0.00 | 0.00 | 1.09 | 81 | 1012.2 |
| 20260502214845 | 13 | 326 | 3.2 | 8.0 | 0.00 | 0.00 | 1.09 | 80 | 1011.9 |
| 20260502214345 | 14 | 300 | 3.2 | 11.3 | 0.00 | 0.00 | 1.09 | 77 | 1011.9 |
| 20260502213846 | 14 | 270 | 8.0 | 9.7 | 0.00 | 0.00 | 1.09 | 73 | 1011.9 |
| 20260502213346 | 14 | 287 | 4.8 | 9.7 | 0.00 | 0.00 | 1.09 | 74 | 1011.9 |
| 20260502212845 | 14 | 272 | 3.2 | 9.7 | 0.00 | 0.00 | 1.09 | 73 | 1011.9 |
| 20260502212345 | 14 | 254 | 6.4 | 12.9 | 0.00 | 0.00 | 1.09 | 72 | 1011.9 |
| 20260502211845 | 14 | 249 | 8.0 | 11.3 | 0.00 | 0.00 | 1.09 | 70 | 1011.9 |
| 20260502211345 | 14 | 324 | 4.8 | 11.3 | 0.00 | 0.00 | 1.09 | 71 | 1011.9 |
| 20260502210846 | 15 | 276 | 4.8 | 12.9 | 0.00 | 0.00 | 1.09 | 72 | 1011.9 |
| 20260502210345 | 15 | 310 | 8.0 | 14.5 | 0.00 | 0.00 | 1.09 | 70 | 1011.9 |
| 20260502205845 | 15 | 255 | 4.8 | 11.3 | 0.00 | 0.00 | 1.09 | 70 | 1011.9 |
| 20260502205345 | 15 | 262 | 6.4 | 20.9 | 0.00 | 0.00 | 1.09 | 70 | 1011.9 |
| 20260502204845 | 15 | 323 | 1.6 | 11.3 | 0.00 | 0.00 | 1.09 | 71 | 1011.9 |
| 20260502204347 | 15 | 309 | 8.0 | 12.9 | 0.00 | 0.00 | 1.09 | 71 | 1011.9 |
| 20260502203846 | 15 | 323 | 8.0 | 16.1 | 0.00 | 0.00 | 1.09 | 72 | 1011.9 |
| 20260502203345 | 15 | 324 | 17.7 | 25.7 | 0.00 | 0.00 | 1.09 | 73 | 1011.9 |
| 20260502202845 | 15 | 334 | 17.7 | 32.2 | 0.00 | 0.00 | 1.09 | 71 | 1011.5 |
| 20260502202345 | 15 | 317 | 8.0 | 11.3 | 0.00 | 0.00 | 1.09 | 68 | 1011.9 |
| 20260502201845 | 15 | 296 | 8.0 | 14.5 | 0.00 | 0.00 | 1.09 | 67 | 1011.5 |
| 20260502201345 | 14 | 295 | 8.0 | 12.9 | 0.00 | 0.00 | 1.09 | 68 | 1011.5 |
| 20260502200845 | 14 | 310 | 6.4 | 9.7 | 0.00 | 0.00 | 1.09 | 67 | 1011.5 |
| 20260502200346 | 14 | 322 | 4.8 | 12.9 | 0.00 | 0.00 | 1.09 | 67 | 1011.5 |
| 20260502195846 | 14 | 281 | 6.4 | 11.3 | 0.00 | 0.00 | 1.09 | 69 | 1011.5 |
| 20260502195345 | 13 | 332 | 3.2 | 11.3 | 0.00 | 0.00 | 1.09 | 71 | 1011.9 |
| 20260502194846 | 13 | 295 | 6.4 | 9.7 | 0.00 | 0.00 | 1.09 | 70 | 1011.9 |
| 20260502194345 | 14 | 315 | 8.0 | 14.5 | 0.00 | 0.00 | 1.09 | 68 | 1011.9 |
| 20260502193846 | 14 | 294 | 12.9 | 24.1 | 0.00 | 0.00 | 1.09 | 66 | 1011.9 |
| 20260502193345 | 14 | 279 | 11.3 | 22.5 | 0.00 | 0.00 | 1.09 | 67 | 1011.9 |
| 20260502192845 | 14 | 293 | 9.7 | 12.9 | 0.00 | 0.00 | 1.09 | 67 | 1011.9 |